Now boarding.
Please wait.

menu

our worldwide Hubs

Our Hubs

GlobalOne creates a global network with its airline members connecting the globe. Our hubs are strategically placed to form a network of maximum connectivity and enabling our pilots to fly any part of the world. Spanning all the way from Europe to Asia & South America, GlobalOne has the most comprehensive Virtual Airline network, distinguishing us from the rest.

NZAA Auckland International Airport

Airport Information METAR Runway Information

Current Weather:

NZAA 170100Z AUTO 23017KT 9999 FEW023/// 22/17 Q1009 NOSIG

Runway Facts:

Direction Length m Length ft Elevation m Elevation ft Surface
05R/23L 3,535 11,926 7 m 23 ft Concrete

EBBR Brussels International Airport

Airport Information METAR Runway Information

Current Weather:

EBBR 170050Z 25008KT 9999 SCT007 BKN009 06/05 Q1003 NOSIG

Runway Facts:

Direction Length m Length ft Elevation m Elevation ft Surface
01/19 2,987 9,800 56 m 184 ft Asphalt
07R/25L 3,211 10,535 56 m 184 ft Asphalt
07L/25R 3,638 11,936 56 m 184 ft Asphalt

LEBL Barcelona El-Prat

Airport Information METAR Runway Information

Current Weather:

LEBL 170100Z 32007KT 9000 FEW035 BKN045 09/05 Q1016 NOSIG

Runway Facts:

Direction Length m Length ft Elevation m Elevation ft Surface
07L/25R 3,743 12,281 4 m 14 ft Asphalt concrete
07R/25L 2,660 8,727 4 m 14 ft Asphalt concrete
02/20 2,528 8,293 4 m 14 ft Asphalt concrete

SVMI Caracas Simón Bolívar International Airport

Airport Information METAR Runway Information

Current Weather:

SVMI 170100Z 11003KT 9999 SCT013 24/22 Q1015

Runway Facts:

Direction Length m Length ft Elevation m Elevation ft Surface
10/28 3,610 11,483 72 m 235 ft Asphalt
09/27 3,270 9,930 72 m 235 ft Asphalt

LEMD Madrid Barajas

Airport Information METAR Runway Information

Current Weather:

LEMD 170100Z 35001KT 5000 BR FEW008 SCT012 01/01 Q1017 NOSIG

Runway Facts:

Direction Length m Length ft Elevation m Elevation ft Surface
14R/32L 4,100 13,451 610 m 2,000 ft Asphalt
18L/36R 3,500 11,482 610 m 2,000 ft Asphalt
14L/32R 3,500 11,482 610 m 2,000 ft Asphalt
18R/36L 4,350 14,268 610 m 2,000 ft Asphalt/Concrete

LEMG Malaga

Airport Information METAR Runway Information

Current Weather:

LEMG 170100Z 29007KT 9999 FEW045 SCT080 10/06 Q1018 NOSIG

Runway Facts:

Direction Length m Length ft Elevation m Elevation ft Surface
13/31 3,200 10,500 16 m 52 ft Asphalt
12/30 2,750 9,022 16 m 52 ft Asphalt

OJAI Queen Alia International Airport

Airport Information METAR Runway Information

Current Weather:

OJAI 170100Z 23020KT 3000 RA SCT008 SCT012 03/02 Q1014 NOSIG

Runway Facts:

Direction Length m Length ft Elevation m Elevation ft Surface
08R/26L 3,660 12,008 730 m 2,395 ft Concrete
08L/26R 3,660 12,008 730 m 2,395 ft Asphalt

KRSW Southwest Florida International Airport

Airport Information METAR Runway Information

Current Weather:

KRSW 170053Z 02005KT 10SM CLR 14/06 A3022 RMK AO2 SLP230 T01440056

Runway Facts:

Direction Length m Length ft Elevation m Elevation ft Surface
06/24 3,658 12,000 9 m 30 ft Asphalt